Location: Bosdarros
(43.2167°N, 0.3667°W)
Time: 12:58:44
(UTC+00:00)

FENGYUN 1C DEB - Visible Passes

Search period start: 23 October 2021 00:00
Search period end: 02 November 2021 00:00
Orbit: 804 x 873 km, 98.8° (Epoch: 22 October)

Date Brightness Start Highest point End Pass type
(mag) Time Alt. Az. Time Alt. Az. Time Alt. Az.
23 Oct ? 17:38:42 10° E 17:40:50 13° NE 17:43:00 10° NNE visible
23 Oct ? 19:19:10 53° SSE 19:20:27 84° ENE 19:25:46 10° NNW visible
23 Oct ? 21:00:55 12° W 21:01:35 12° W 21:03:38 10° WNW visible
24 Oct ? 19:03:49 47° SE 19:05:08 62° ENE 19:10:22 10° N visible
24 Oct ? 20:45:35 17° W 20:46:02 17° W 20:49:27 10° NW visible
25 Oct ? 18:48:29 37° ESE 18:49:51 46° ENE 18:54:54 10° N visible
25 Oct ? 20:30:14 23° W 20:30:31 24° W 20:34:44 10° NW visible
26 Oct ? 18:33:08 29° E 18:34:36 34° ENE 18:39:21 10° N visible
26 Oct ? 20:14:53 32° W 20:15:02 32° W 20:19:46 10° NNW visible
27 Oct ? 18:17:47 22° E 18:19:24 26° ENE 18:23:42 10° N visible
27 Oct ? 19:59:33 44° W 19:59:36 44° W 20:04:40 10° NNW visible
28 Oct ? 18:02:26 17° E 18:04:14 20° ENE 18:07:56 10° NNE visible
28 Oct ? 19:44:11 61° WSW 19:44:11 61° WSW 19:49:28 10° NNW visible
29 Oct ? 17:47:05 12° E 17:49:05 15° ENE 17:51:57 10° NNE visible
29 Oct ? 19:28:50 83° W 19:28:50 83° W 19:34:10 10° NNW visible
30 Oct ? 17:32:36 10° ENE 17:33:59 11° NE 17:35:23 10° NE visible
30 Oct ? 19:13:29 74° ENE 19:13:29 74° ENE 19:18:48 10° N visible
30 Oct ? 20:55:14 14° W 20:55:14 14° W 20:57:21 10° WNW visible
31 Oct ? 18:58:07 54° ENE 18:58:11 54° ENE 19:03:23 10° N visible
31 Oct ? 20:39:52 19° WNW 20:39:52 19° WNW 20:42:50 10° NW visible
01 Nov ? 18:42:44 40° ENE 18:42:55 40° ENE 18:47:52 10° N visible
01 Nov ? 20:24:30 26° WNW 20:24:30 26° WNW 20:27:59 10° NW visible
